Showing default

STARONE C3, 38991

Orbit data source: Space-Track

STARONE C3, 38991 is a payload satellite owned by Star One (BR) in GEO that was launched on Sat, 10 Nov 2012 UTC via an ARIANE 5ECA launch vehicle from the French Guiana (FRGUI). Payload-class satellites include a variety of spacecraft equipped with specific instruments for various scientific and technological missions. These include communications satellites like Starlink; space stations such as the ISS; scientific satellites like the Hubble; Earth observation satellites from companies like Planet Labs, Umbra, and HawkEye 360; GPS; miniature CubeSats for education and research; and military/defense satellites.

Loading next visibility...
Identifier
38991, 2012-062A
Orbit
GEO
Country
Flag of BRBR / BRAZ
Related business
Manufacturer
OSC
Mission
Operational Commercial Communications
Bus & Motor
STAR-2.4E, IHI
Mass
3,226 kg wet, ~1,530 kg dry
Launch date (UTC)
2012-11-10 (13 years ago)
Launch vehicle
ARIANE 5ECA
Launch site
French Guiana (FRGUI)
Object type
Payload
Rocket body
Debris
Shape & HBR
Box + 2 Pan, 11.5 m
Radar Cross Section
29.105 m², Large (>1 m²)

Expand to show TLE details & history
Last TLE update: 8 hours ago

TLE from 8 hours ago
0 STARONE C3
1 38991U 12062A   26107.20997266 -.00000242  00000-0  00000-0 0  9997
2 38991   0.0159 268.9008 0002345 136.3525 160.6948  1.00271194 49157
Epoch: 2026-04-17T05:02Z
TLE epoch observation values (Epoch: 2026-04-17T05:02:21.637Z)
Latitude
-0.0254°
Longitude
-74.98846°
Altitude
35,795.635 km
Speed
3.074 km/s
True Right ascension
13h 43m 47s
True Declination
0° 01' 31"
Sunlit
Object was in daylight at epoch
Visualization orbit readout
Latitude
Unknown
Longitude
Unknown
Altitude
Unknown
Speed
Unknown
Apparent Right ascension
Unknown
Apparent Declination
Unknown
Sunlit
N/A
Visualization observer readout
Local Sidereal Time
19:26:15
Azimuth
Unknown
Elevation
Unknown
Doppler factor
Unknown
Orbital elements
Apogee altitude
35,797.719 km
Perigee altitude
35,777.943 km
Semi-major axis
42,165.968 km
Eccentricity
0.00023
Inclination
0.0159°
RAAN
268.9008°
Arg. of periapsis
136.3525°
True anomaly
160.70368°
Mean anomaly
160.6948°
Eccentric anomaly
160.69924°
Mean motion
0.25067 °/min
Orbital period
1,436.16 mins
BSTAR
0
Loading maneuver chart data...
Computing Atmospheric mass density...
Loading historical data...
Loading historical data...
Loading historical data...
Loading historical data...
Loading historical data...
Loading historical data...
Loading historical data...
Other satellites on launch #62 in the year 2012 (2012-11-10 UTC)

Documentation

Showing up to 5 results
|